Location: Goettingen
(51.5300°N, 9.9433°E)
Time: 00:44:20
(UTC+02:00)

ISS - Pass Details

Date: 26 May 2017
Orbit: 402 x 408 km, 51.6° (Epoch: 30 May)

Event Time Altitude Azimuth Distance (km) Brightness Sun altitude
Rises 00:11:48 0° 259° (W) 2,331 0.1 -16.0°
Reaches altitude 10° 00:13:53 10° 259° (W) 1,470 -0.9 -16.0°
Maximum altitude 00:17:11 85° 172° (S) 414 -3.9 -16.2°
Drops below altitude 10° 00:20:29 10° 83° (E) 1,469 -1.1 -16.3°
Sets 00:22:34 0° 83° (E) 2,329 0.0 -16.4°
